Cloud_Cover
0 4 1 0 0 0 0 75 70 63 100 75 28 5 5 100 98 100 100 52 100 52 90 89 5 72 99 32 0 0 0 0 0 0 0 0 0 0 0 0 0 0 0 0 0 0 0 0 0
0 0 0 0 0 0 14 88 59 56 51 94 97 6 15 26 92 100 91 73 100 100 100 100 38 92 79 12 0 0 0 0 0 0 0 0 0 0 0 0 0 0 0 0 0 0 0 0 0
0 0 0 0 0 84 100 100 100 21 7 66 35 5 80 31 9 100 100 100 100 100 100 100 84 100 13 5 5 1 0 0 0 0 0 0 0 0 0 0 0 0 0 0 0 0 0 0 0
0 0 0 0 0 2 100 100 100 5 1 45 75 4 72 43 10 100 100 100 81 94 100 100 100 24 5 5 5 4 0 0 0 0 0 0 0 0 0 0 0 0 0 0 0 0 0 0 0
0 0 0 0 0 2 16 100 100 5 22 21 20 5 13 69 5 86 100 100 76 81 100 100 100 94 54 5 12 6 0 0 0 0 0 0 0 0 5 5 3 0 0 0 0 0 0 0 0
0 0 0 0 0 0 0 23 97 26 23 66 70 5 14 100 18 80 100 100 57 100 91 100 100 100 70 61 19 55 6 4 0 0 0 0 0 0 5 5 5 0 5 5 3 5 5 5 2
0 0 0 0 0 0 0 0 6 6 4 5 87 7 50 90 93 74 97 100 100 100 85 99 97 100 100 94 56 9 6 5 4 0 0 0 5 4 5 5 5 5 5 5 5 5 5 3 0
0 0 0 0 0 0 0 4 5 11 8 14 100 41 88 97 31 66 100 100 100 100 87 68 90 98 100 100 99 53 5 17 5 2 0 0 4 5 5 5 5 5 3 3 5 5 5 2 0
0 0 0 0 0 0 0 0 5 70 72 2 14 79 80 100 53 100 100 100 100 100 98 100 96 71 100 100 98 95 5 7 90 6 0 0 1 5 5 5 5 5 5 5 5 5 2 0 0
0 0 0 0 0 0 0 0 3 61 76 30 57 25 65 74 100 100 100 100 100 100 100 90 92 80 91 100 100 100 83 40 75 72 4 0 0 0 5 5 5 5 5 5 5 5 1 0 0
5 3 0 0 0 0 0 0 0 0 48 29 9 100 96 96 100 100 100 100 100 100 100 66 62 71 86 100 100 100 100 83 73 100 61 4 0 0 0 0 0 2 5 5 5 5 5 1 0
31 5 7 5 0 0 0 0 0 0 0 0 2 32 100 82 100 100 100 100 100 100 95 46 100 90 90 94 100 100 100 100 100 100 100 96 4 0 3 5 5 5 5 5 5 5 5 5 5
37 24 89 100 6 0 0 0 0 0 0 0 0 10 51 61 100 100 100 100 100 100 100 100 100 98 100 6 100 100 100 100 100 100 100 100 96 18 5 5 5 5 7 14 71 91 97 5 6
24 5 5 16 7 0 0 0 0 0 0 0 0 1 2 3 64 100 100 100 100 100 100 100 100 100 100 27 40 100 100 100 100 100 100 100 96 100 91 54 39 28 31 75 100 100 100 57 7
52 5 5 53 5 5 19 3 0 0 0 0 0 0 0 5 0 7 94 100 100 100 100 58 100 100 100 100 96 74 100 100 100 95 68 51 64 85 100 100 100 100 100 100 100 100 100 100 24
5 5 9 30 5 35 70 1 0 0 0 0 0 0 0 0 0 0 13 98 100 100 100 89 100 100 100 100 100 100 100 100 100 100 75 74 48 39 93 100 100 100 100 100 100 100 100 100 96
5 18 44 22 8 13 60 46 0 0 0 0 0 0 0 0 0 0 1 32 100 100 100 100 100 100 100 100 100 100 100 100 100 100 85 51 77 53 86 98 100 100 100 100 100 100 100 100 96
69 99 99 72 36 27 100 7 1 0 0 0 0 0 0 0 0 0 0 2 77 96 100 91 100 100 100 100 100 100 100 100 100 100 100 100 62 87 100 100 100 100 100 100 100 100 100 100 100
5 65 100 5 1 4 59 1 0 0 0 0 0 0 0 0 0 0 0 10 65 100 100 100 100 100 100 100 100 100 100 100 100 100 100 100 100 100 100 97 100 100 100 100 100 100 100 100 66
10 48 64 7 0 8 5 5 0 0 0 0 0 0 0 0 0 0 0 0 76 97 100 100 98 97 100 100 100 100 100 100 100 100 100 100 100 100 100 100 82 100 100 100 100 69 90 70 67
5 93 5 23 6 6 2 3 0 3 0 0 0 0 0 0 0 0 0 0 14 100 100 100 100 99 100 100 100 100 100 100 100 100 100 100 100 100 100 100 100 100 100 100 100 6 78 99 100
6 5 72 85 72 100 63 66 0 5 4 2 0 0 0 0 0 0 0 0 0 41 100 100 57 100 83 100 100 100 100 100 100 99 96 100 100 100 100 100 97 99 100 87 35 82 99 100 100
5 10 100 100 100 100 96 66 99 77 17 2 0 0 0 0 0 0 0 0 0 0 100 100 99 81 100 100 100 100 100 100 100 100 100 100 100 100 100 100 100 100 100 100 100 100 100 100 100
6 51 72 100 100 100 100 100 100 64 49 3 0 0 0 0 0 0 1 1 5 5 80 100 100 92 100 100 100 100 100 100 100 100 100 100 100 100 100 100 100 100 100 100 100 100 100 100 100
71 98 40 99 100 100 100 100 100 43 69 76 39 39 34 3 0 0 0 1 71 57 31 100 100 100 96 99 100 100 100 100 96 82 100 100 100 100 100 100 100 94 100 100 100 100 100 100 100
99 99 96 76 100 54 70 83 94 16 15 40 29 20 100 47 1 0 0 30 100 98 29 100 100 100 100 100 100 100 100 100 98 100 100 100 100 100 100 100 96 84 90 100 100 100 100 100 100
81 99 96 100 51 99 83 100 100 99 98 72 19 99 100 100 28 0 0 12 100 100 100 100 100 100 100 100 100 100 100 100 100 100 100 100 100 99 100 92 99 93 96 100 100 100 100 100 100
100 100 100 100 95 100 100 100 99 80 93 95 74 100 100 100 75 66 96 91 100 100 100 100 100 100 100 100 100 100 100 100 100 96 100 100 100 100 100 100 100 91 100 100 100 100 100 100 100
100 100 100 100 100 97 45 65 100 100 8 61 59 68 99 98 79 99 100 100 100 100 100 100 100 100 100 100 100 100 100 100 100 100 100 100 100 100 100 100 92 81 100 100 100 100 100 42 11
100 100 100 100 100 100 100 97 7 14 60 5 5 87 81 78 56 100 100 100 100 100 100 100 100 100 98 100 100 100 100 100 100 100 100 100 100 100 100 87 48 52 33 100 24 48 9 5 100